Location: Tabor
(49.4170°N, 14.6670°E)
Time: 11:24:51
(UTC+02:00)

ISS - Pass Details

Date: 19 May 2021
Orbit: 417 x 422 km, 51.6° (Epoch: 13 June)

Event Time Altitude Azimuth Distance (km) Brightness Sun altitude
Rises 22:05:42 0° 257° (WSW) 2,359 0.5 -10.8°
Reaches altitude 10° 22:07:48 10° 259° (W) 1,498 -0.5 -11.0°
Maximum altitude 22:11:10 75° 346° (NNW) 439 -3.6 -11.4°
Drops below altitude 10° 22:14:32 10° 72° (ENE) 1,504 -1.2 -11.7°
Sets 22:16:39 0° 74° (ENE) 2,371 -0.2 -12.0°
